[[{"header":{"parameterUnit":"m.s-1","parameterCategory":2,"la1":30.2992,"la2":30.254,"lo1":-89.0895,"lo2":-89.0443,"dy":0.0025,"dx":0.0025,"nx":19,"ny":19,"refTime":"2026-03-28T09:00:00:Z","depth":"0","parameterNumber":2,"parameterNumberName":"U-component_of_CURRENTS"},"data":[0,0,0,0.3159,0.3162,0.3306,0.3306,0.3404,0.3405,0,0,0,0,0,0,0,0,0,0,0,0.3102,0.3103,0.3159,0.3163,0.3306,0.3306,0.3404,0.3405,0,0,0,0,0,0,0,0,0,0,0,0.3102,0.3103,0.3104,0.3163,0.3306,0.3307,0.3404,0.3316,0,0,0,0,0,0,0,0,0,0,0.3187,0.3144,0.3103,0.3104,0.3164,0.3306,0.3307,0.3312,0.3321,0.3316,0,0.3343,0,0.338,0.341,0.341,0,0,0,0.3158,0.3137,0.3182,0.3105,0.3165,0.3305,0.324,0.3318,0.3328,0.3327,0.3345,0.3349,0.3382,0.341,0.3411,0.352,0.352,0,0,0.315,0.3121,0.3176,0.3189,0.3207,0.3235,0.3244,0.3325,0.3331,0.3345,0.3352,0.3383,0.3411,0.3411,0.3519,0.352,0,0,0,0.313,0.3115,0.316,0.3183,0.3219,0.324,0.325,0.3327,0.3344,0.3354,0.3385,0.3411,0.3412,0.3518,0.3519,0.3599,0,0,0,0.3125,0.3105,0.3156,0.3139,0.3218,0.3287,0.325,0.3339,0.335,0.3384,0.3411,0.3413,0.3518,0.3519,0.3595,0.3651,0,0,0,0.3095,0.3101,0.3121,0.3138,0.3204,0.3287,0.3309,0.3342,0.3368,0.341,0.3413,0.3517,0.3519,0.3592,0.3645,0.3778,0,0,0,0.3056,0.3104,0.312,0.3188,0.3203,0.3312,0.3309,0.3388,0.3429,0.3412,0.3518,0.3519,0.3591,0.3641,0.3772,0.3842,0.3872,0,0,0.3097,0.3108,0.3151,0.3171,0.3275,0.3292,0.3397,0.3444,0.3446,0.3482,0.3486,0.3597,0.3644,0.3777,0.3928,0.3956,0,0,0,0.3153,0.3181,0.3219,0.3282,0.3352,0.3426,0.3465,0.3496,0.3561,0.348,0.3605,0.3633,0.3714,0.3744,0.3767,0.3686,0.3526,0.3526,0.3526,0.315,0.3205,0.3284,0.3358,0.3421,0.3518,0.3601,0.3645,0.3613,0.3657,0.3703,0.3866,0.3896,0.3914,0.3829,0.3698,0.3698,0.3698,0.3698,0.3216,0.3273,0.3328,0.3423,0.3495,0.3576,0.3716,0.3744,0.3879,0.3788,0.3864,0.3832,0.3944,0.3844,0.3704,0.3703,0.3702,0.3702,0.3701,0.3219,0.3261,0.3308,0.3435,0.3534,0.3639,0.3805,0.3884,0.3974,0.4057,0.4115,0.4114,0.4027,0.4095,0.4096,0.4097,0.4098,0.4098,0.4099,0.3212,0.3268,0.334,0.3467,0.3526,0.3668,0.3862,0.4004,0.4194,0.4238,0.4238,0.4081,0.3988,0.3974,0.4112,0.411,0.4108,0.4107,0.4106,0.3288,0.3281,0.3394,0.3453,0.3594,0.3679,0.3881,0.4189,0.4364,0.4498,0.4369,0.4355,0.4355,0.4335,0.433,0.4552,0.4552,0.4552,0.4552,0.3312,0.3331,0.3439,0.3512,0.3615,0.3689,0.3871,0.4133,0.4408,0.4468,0.4505,0.4385,0.437,0.4361,0.4341,0.4331,0.455,0.4549,0.4549,0.3386,0.3403,0.3481,0.3535,0.3605,0.3679,0.3757,0.3874,0.4262,0.4535,0.4386,0.4386,0.4186,0.4169,0.4126,0.4105,0.4078,0,0]},{"header":{"parameterUnit":"m.s-1","parameterCategory":2,"la1":30.2992,"la2":30.254,"lo1":-89.0895,"lo2":-89.0443,"dy":0.0025,"dx":0.0025,"nx":19,"ny":19,"refTime":"2026-03-28T09:00:00:Z","depth":"0","parameterNumber":3,"parameterNumberName":"V-component_of_CURRENTS"},"data":[0,0,0,-0.0481,-0.0483,-0.0597,-0.0598,-0.0775,-0.0777,0,0,0,0,0,0,0,0,0,0,0,-0.043,-0.043,-0.0481,-0.0483,-0.0597,-0.0598,-0.0775,-0.0777,0,0,0,0,0,0,0,0,0,0,0,-0.043,-0.043,-0.0431,-0.0483,-0.0597,-0.0598,-0.0775,-0.0683,0,0,0,0,0,0,0,0,0,0,-0.0569,-0.0512,-0.043,-0.0431,-0.0484,-0.0597,-0.0598,-0.0678,-0.0689,-0.0729,0,-0.0733,0,-0.0761,-0.0788,-0.0789,0,0,0,-0.0493,-0.0503,-0.0536,-0.0431,-0.0485,-0.0597,-0.0549,-0.0684,-0.0696,-0.0743,-0.0736,-0.0743,-0.0764,-0.079,-0.079,-0.0859,-0.0859,0,0,-0.0486,-0.0455,-0.0528,-0.0543,-0.0498,-0.0545,-0.0552,-0.0691,-0.0695,-0.0736,-0.0747,-0.0767,-0.0791,-0.0792,-0.086,-0.0859,0,0,0,-0.0462,-0.045,-0.048,-0.0536,-0.0555,-0.0548,-0.0556,-0.0689,-0.0699,-0.0749,-0.0769,-0.0792,-0.0794,-0.086,-0.0859,-0.0685,0,0,0,-0.0458,-0.0436,-0.0477,-0.0461,-0.0552,-0.062,-0.0551,-0.0689,-0.0706,-0.0768,-0.0792,-0.0796,-0.0861,-0.086,-0.0691,-0.0546,0,0,0,-0.0428,-0.0433,-0.0441,-0.0458,-0.0505,-0.0618,-0.0636,-0.0693,-0.0718,-0.0789,-0.0796,-0.0861,-0.086,-0.0696,-0.0558,-0.0383,0,0,0,-0.0401,-0.0387,-0.044,-0.0437,-0.0504,-0.0553,-0.0636,-0.0687,-0.0738,-0.0793,-0.0861,-0.0859,-0.0698,-0.0566,-0.0392,-0.0174,-0.0116,0,0,-0.0364,-0.0381,-0.0381,-0.0431,-0.0443,-0.0539,-0.0542,-0.0644,-0.0732,-0.0821,-0.0823,-0.0689,-0.0559,-0.0385,-0.0099,-0.0041,0,0,0,-0.0357,-0.0349,-0.0367,-0.0388,-0.0447,-0.045,-0.0572,-0.0594,-0.0643,-0.0757,-0.0711,-0.0634,-0.0529,-0.0419,-0.0374,-0.0584,-0.0853,-0.0853,-0.0854,-0.0257,-0.0293,-0.0278,-0.032,-0.0343,-0.0403,-0.0387,-0.0441,-0.0579,-0.0553,-0.0511,-0.0278,-0.0164,-0.0126,-0.0349,-0.0571,-0.0571,-0.057,-0.057,-0.0178,-0.0152,-0.0191,-0.0182,-0.0196,-0.0196,-0.0212,-0.0253,-0.0185,-0.0353,-0.0262,-0.0265,-0.0065,-0.0321,-0.0559,-0.0561,-0.0562,-0.0563,-0.0564,-0.0094,-0.0076,-0.0084,-0.0044,0.001,-0.0023,0.014,0.008,0.0025,0.0109,0.0226,0.0224,0.0024,0.0142,0.0144,0.0145,0.0147,0.0148,0.0148,0.002,0.0012,0.0083,0.0116,0.0173,0.0283,0.0372,0.0474,0.0561,0.0497,0.0497,0.0094,-0.0059,-0.0059,0.017,0.0166,0.0164,0.0162,0.016,0.0148,0.0161,0.026,0.0324,0.0478,0.0713,0.077,0.1063,0.1131,0.124,0.069,0.0701,0.0693,0.0654,0.0671,0.1076,0.1076,0.1076,0.1076,0.0262,0.0266,0.0423,0.0551,0.075,0.0911,0.1406,0.1603,0.139,0.119,0.0941,0.0749,0.0721,0.0695,0.0656,0.0664,0.1058,0.1057,0.1056,0.0366,0.0391,0.0529,0.0637,0.0854,0.1186,0.1706,0.2041,0.1551,0.1017,0.0609,0.061,0.0269,0.0243,0.0142,0.0104,0.0092,0,0]}],[{"header":{"parameterUnit":"m.s-1","parameterCategory":2,"la1":30.2992,"la2":30.254,"lo1":-89.0895,"lo2":-89.0443,"dy":0.0025,"dx":0.0025,"nx":19,"ny":19,"refTime":"2026-03-28T09:00:00:Z","depth":"2","parameterNumber":2,"parameterNumberName":"U-component_of_CURRENTS"},"data":[0,0,0,0.245,0.2453,0.2635,0.2636,0.2766,0.2767,0,0,0,0,0,0,0,0,0,0,0,0.2412,0.2413,0.245,0.2454,0.2635,0.2636,0.2766,0.2767,0,0,0,0,0,0,0,0,0,0,0,0.2411,0.2413,0.2415,0.2454,0.2635,0.2636,0.2766,0.2659,0,0,0,0,0,0,0,0,0,0,0.2497,0.2461,0.2412,0.2415,0.2455,0.2634,0.2636,0.2655,0.2666,0.2649,0,0.2691,0,0.271,0.2772,0.2772,0,0,0,0.2473,0.2452,0.2502,0.2415,0.2456,0.2634,0.2559,0.2662,0.2674,0.2662,0.2693,0.2698,0.2712,0.2772,0.2772,0.2876,0.2877,0,0,0.2463,0.2439,0.2495,0.251,0.2519,0.2553,0.2564,0.2671,0.2685,0.2693,0.2701,0.2715,0.2773,0.2773,0.2876,0.2877,0,0,0,0.2421,0.2432,0.2483,0.2504,0.2534,0.2557,0.2571,0.2681,0.27,0.2702,0.2716,0.2773,0.2774,0.2875,0.2876,0.2946,0,0,0,0.2416,0.2406,0.2478,0.2465,0.2533,0.262,0.2579,0.2694,0.2705,0.2715,0.2773,0.2774,0.2874,0.2876,0.2942,0.3049,0,0,0,0.24,0.2403,0.2431,0.2463,0.2531,0.2619,0.2645,0.2698,0.2711,0.2772,0.2775,0.2874,0.2875,0.2939,0.3041,0.3113,0,0,0,0.2361,0.2398,0.2431,0.2482,0.2529,0.2621,0.2645,0.2724,0.2778,0.2773,0.2874,0.2876,0.2938,0.3037,0.3108,0.3023,0.304,0,0,0.2376,0.2399,0.2429,0.2462,0.2533,0.2596,0.2685,0.2767,0.2793,0.2833,0.2838,0.2943,0.3041,0.3112,0.3109,0.3123,0,0,0,0.2413,0.2435,0.2465,0.252,0.259,0.2694,0.2748,0.2809,0.2914,0.2829,0.2954,0.3016,0.3057,0.2995,0.3006,0.2883,0.2883,0.2883,0.2883,0.2389,0.2435,0.249,0.2559,0.263,0.2754,0.287,0.2962,0.2932,0.3006,0.3076,0.3197,0.3129,0.3137,0.3041,0.3041,0.3041,0.3041,0.3042,0.2402,0.2442,0.2517,0.259,0.2704,0.28,0.299,0.3044,0.3227,0.3172,0.3206,0.3078,0.3153,0.3047,0.3046,0.3045,0.3045,0.3044,0.3044,0.2381,0.2412,0.2466,0.2586,0.2738,0.2879,0.309,0.325,0.3329,0.342,0.3328,0.3325,0.3272,0.3408,0.3408,0.3409,0.341,0.341,0.3411,0.2348,0.2401,0.2452,0.2604,0.269,0.2893,0.3198,0.3349,0.3479,0.3468,0.3465,0.3322,0.331,0.3295,0.3423,0.3421,0.3419,0.3418,0.3417,0.2319,0.235,0.2405,0.2474,0.2668,0.2773,0.3068,0.3316,0.351,0.3539,0.3476,0.347,0.3457,0.3445,0.3433,0.3591,0.3591,0.3591,0.3591,0.2279,0.231,0.2325,0.238,0.2515,0.2691,0.275,0.2921,0.3205,0.3266,0.3278,0.3117,0.3119,0.3077,0.3073,0.3049,0.3107,0.3106,0.3105,0.2236,0.2247,0.2215,0.2277,0.2401,0.2527,0.2469,0.2438,0.2772,0.3077,0.3102,0.3576,0.3369,0.336,0.3314,0.33,0.327,0,0]},{"header":{"parameterUnit":"m.s-1","parameterCategory":2,"la1":30.2992,"la2":30.254,"lo1":-89.0895,"lo2":-89.0443,"dy":0.0025,"dx":0.0025,"nx":19,"ny":19,"refTime":"2026-03-28T09:00:00:Z","depth":"2","parameterNumber":3,"parameterNumberName":"V-component_of_CURRENTS"},"data":[0,0,0,-0.0121,-0.0123,-0.0249,-0.025,-0.0466,-0.0468,0,0,0,0,0,0,0,0,0,0,0,-0.009,-0.009,-0.0121,-0.0123,-0.0249,-0.025,-0.0466,-0.0468,0,0,0,0,0,0,0,0,0,0,0,-0.0089,-0.009,-0.0091,-0.0124,-0.0249,-0.025,-0.0465,-0.0362,0,0,0,0,0,0,0,0,0,0,-0.0235,-0.0174,-0.009,-0.0091,-0.0124,-0.0249,-0.025,-0.0356,-0.0368,-0.0418,0,-0.0434,0,-0.0444,-0.0482,-0.0482,0,0,0,-0.0145,-0.0164,-0.0209,-0.0091,-0.0125,-0.0248,-0.0198,-0.0363,-0.0376,-0.0434,-0.0437,-0.0444,-0.0447,-0.0483,-0.0484,-0.0593,-0.0593,0,0,-0.0138,-0.0107,-0.0199,-0.0217,-0.0155,-0.0194,-0.0202,-0.0371,-0.0378,-0.0438,-0.0449,-0.0451,-0.0484,-0.0486,-0.0594,-0.0593,0,0,0,-0.0103,-0.0102,-0.0142,-0.0208,-0.022,-0.0197,-0.0206,-0.0371,-0.0387,-0.0451,-0.0453,-0.0486,-0.0488,-0.0594,-0.0594,-0.0427,0,0,0,-0.01,-0.0081,-0.0139,-0.0121,-0.0216,-0.0284,-0.0203,-0.0376,-0.0395,-0.0452,-0.0486,-0.049,-0.0595,-0.0594,-0.0433,-0.0307,0,0,0,-0.0084,-0.0078,-0.0094,-0.0119,-0.0164,-0.0282,-0.0308,-0.038,-0.0395,-0.0483,-0.0491,-0.0595,-0.0594,-0.0437,-0.0317,-0.0214,0,0,0,-0.0048,-0.0043,-0.0094,-0.009,-0.0162,-0.0217,-0.0307,-0.0365,-0.0431,-0.0487,-0.0594,-0.0594,-0.0439,-0.0324,-0.0221,-0.0122,-0.0082,0,0,-0.0015,-0.0039,-0.0036,-0.0083,-0.0095,-0.0202,-0.0208,-0.0333,-0.0437,-0.0548,-0.0551,-0.0431,-0.0318,-0.0215,-0.0075,-0.0035,0,0,0,-0.0007,-0.0004,-0.0018,-0.0039,-0.0102,-0.0124,-0.0251,-0.0291,-0.0375,-0.0469,-0.0461,-0.0395,-0.0335,-0.0292,-0.0261,-0.059,-0.059,-0.059,-0.059,0.0074,0.0046,0.006,0.002,-0.0011,-0.0085,-0.0094,-0.0179,-0.0312,-0.0311,-0.0284,-0.0118,-0.0074,-0.0049,-0.0343,-0.0342,-0.0342,-0.0341,-0.0341,0.0144,0.0158,0.0131,0.0138,0.0105,0.0089,0.0041,-0.0011,-0.0003,-0.0147,-0.0099,-0.0149,-0.0005,-0.0328,-0.0331,-0.0332,-0.0334,-0.0335,-0.0335,0.0204,0.0211,0.0213,0.0241,0.0271,0.0229,0.0346,0.0276,0.0174,0.0228,0.0227,0.0224,0.0029,0.0225,0.0226,0.0227,0.0228,0.0229,0.0229,0.0268,0.0271,0.0325,0.0356,0.0403,0.0491,0.0538,0.0595,0.0569,0.0457,0.0456,0.0073,0.0055,0.006,0.0245,0.0242,0.024,0.0239,0.0238,0.0323,0.0346,0.0438,0.0495,0.0638,0.0881,0.088,0.1023,0.0999,0.1019,0.0575,0.0562,0.0529,0.0502,0.0516,0.0809,0.0809,0.0809,0.0809,0.0373,0.0386,0.0541,0.0675,0.0871,0.1057,0.1386,0.1327,0.1125,0.0916,0.091,0.0779,0.0755,0.0724,0.0691,0.0704,0.1046,0.1046,0.1046,0.0407,0.0461,0.0589,0.0741,0.0979,0.1317,0.1666,0.1554,0.1165,0.1047,0.0866,0.0841,0.0626,0.0597,0.0519,0.0478,0.0486,0,0]}],[{"header":{"parameterUnit":"m.s-1","parameterCategory":2,"la1":30.2992,"la2":30.254,"lo1":-89.0895,"lo2":-89.0443,"dy":0.0025,"dx":0.0025,"nx":19,"ny":19,"refTime":"2026-03-28T09:00:00:Z","depth":"4","parameterNumber":2,"parameterNumberName":"U-component_of_CURRENTS"},"data":[0,0,0,0.0941,0.0944,0.1136,0.1137,0.1282,0.1282,0,0,0,0,0,0,0,0,0,0,0,0.0922,0.0923,0.0941,0.0944,0.1136,0.1137,0.1282,0.1282,0,0,0,0,0,0,0,0,0,0,0,0.0921,0.0923,0.0925,0.0945,0.1136,0.1138,0.1282,0.1172,0,0,0,0,0,0,0,0,0,0,0.1002,0.0958,0.0922,0.0925,0.0945,0.1135,0.1138,0.1168,0.1179,0.1153,0,0.1199,0,0.1202,0.1286,0.1286,0,0,0,0.0986,0.0949,0.1011,0.0925,0.0947,0.1135,0.1061,0.1175,0.1187,0.1166,0.1201,0.1206,0.1205,0.1286,0.1287,0.1386,0.1387,0,0,0.0975,0.0942,0.1004,0.1019,0.1014,0.1055,0.1067,0.1184,0.1194,0.1201,0.1209,0.1207,0.1287,0.1287,0.1386,0.1387,0,0,0,0.0917,0.0934,0.0997,0.1014,0.1034,0.1059,0.1073,0.119,0.1215,0.121,0.1209,0.1287,0.1288,0.1385,0.1386,0.1495,0,0,0,0.0912,0.0897,0.0992,0.0972,0.1032,0.1117,0.1076,0.121,0.1221,0.1208,0.1287,0.1288,0.1384,0.1385,0.149,0.1518,0,0,0,0.091,0.0894,0.0927,0.097,0.1031,0.1116,0.1151,0.1214,0.1216,0.1286,0.1288,0.1384,0.1385,0.1486,0.1511,0.1635,0,0,0,0.0856,0.0892,0.0927,0.0958,0.1029,0.1124,0.115,0.1227,0.129,0.1287,0.1384,0.1386,0.1485,0.1507,0.1629,0.1369,0,0,0,0.0863,0.0892,0.0907,0.0941,0.1015,0.11,0.1207,0.1298,0.1305,0.1343,0.1347,0.1492,0.1511,0.1634,0.1468,0,0,0,0,0.0882,0.0905,0.0937,0.0983,0.1059,0.1192,0.1274,0.1322,0.1432,0.1341,0.1495,0.1503,0.1578,0.141,0.1394,0.1394,0.1394,0.1393,0.1393,0.086,0.0893,0.0938,0.1021,0.11,0.1252,0.1376,0.1458,0.1463,0.153,0.1595,0.1762,0.1586,0.1608,0.1609,0.1609,0.161,0.161,0.161,0.0857,0.0858,0.095,0.1019,0.116,0.1277,0.1467,0.1543,0.1738,0.1677,0.1748,0.1537,0.1621,0.1619,0.1617,0.1616,0.1615,0.1614,0.1614,0.0799,0.0804,0.0882,0.098,0.1149,0.1329,0.152,0.1702,0.1806,0.1922,0.1791,0.1851,0.1842,0.1997,0.1998,0.1998,0.1999,0.1999,0.2,0.0691,0.0763,0.0816,0.0955,0.1061,0.1265,0.1586,0.1721,0.1903,0.1879,0.1983,0.1892,0.188,0.1864,0.201,0.2009,0.2007,0.2006,0.2005,0.0568,0.0623,0.0683,0.0775,0.1003,0.1151,0.1472,0.1714,0.1867,0.1905,0.1865,0.1868,0.1812,0.1803,0.1781,0.1909,0.1906,0.1903,0,0.0472,0.05,0.0589,0.0696,0.0837,0.1084,0.125,0.1462,0.1667,0.1611,0.1827,0.177,0.1774,0.1694,0.1682,0.1646,0,0,0,0.0394,0.0442,0.0469,0.0593,0.0762,0.1029,0.1295,0.1344,0.1628,0.1704,0.1834,0.1852,0.1871,0.2042,0.1967,0.1951,0.1923,0,0]},{"header":{"parameterUnit":"m.s-1","parameterCategory":2,"la1":30.2992,"la2":30.254,"lo1":-89.0895,"lo2":-89.0443,"dy":0.0025,"dx":0.0025,"nx":19,"ny":19,"refTime":"2026-03-28T09:00:00:Z","depth":"4","parameterNumber":3,"parameterNumberName":"V-component_of_CURRENTS"},"data":[0,0,0,0.0314,0.0314,0.0284,0.0284,0.0215,0.0215,0,0,0,0,0,0,0,0,0,0,0,0.0301,0.0301,0.0314,0.0314,0.0284,0.0284,0.0215,0.0215,0,0,0,0,0,0,0,0,0,0,0,0.0301,0.0301,0.0301,0.0314,0.0285,0.0284,0.0215,0.0237,0,0,0,0,0,0,0,0,0,0,0.0266,0.0285,0.0301,0.0301,0.0314,0.0285,0.0284,0.0238,0.0236,0.0232,0,0.0235,0,0.025,0.0213,0.0213,0,0,0,0.0278,0.0287,0.0277,0.0301,0.0315,0.0285,0.0288,0.0237,0.0234,0.0229,0.0234,0.0232,0.0249,0.0213,0.0213,0.0229,0.0229,0,0,0.028,0.0294,0.0279,0.0275,0.0317,0.0289,0.0287,0.0235,0.0238,0.0234,0.0231,0.0248,0.0213,0.0213,0.0228,0.0229,0,0,0,0.0309,0.0295,0.0286,0.0277,0.0289,0.0289,0.0287,0.0239,0.0236,0.0231,0.0247,0.0213,0.0212,0.0228,0.0228,0.0268,0,0,0,0.0308,0.0315,0.0287,0.0294,0.0291,0.0274,0.0292,0.0238,0.0234,0.0247,0.0213,0.0212,0.0227,0.0228,0.0266,0.0303,0,0,0,0.03,0.0315,0.0313,0.0295,0.0301,0.0275,0.0267,0.0237,0.0246,0.0213,0.0212,0.0227,0.0228,0.0264,0.0299,0.026,0,0,0,0.031,0.0342,0.0313,0.0359,0.0302,0.033,0.0267,0.0273,0.0254,0.0212,0.0227,0.0228,0.0264,0.0297,0.0259,0.0302,0,0,0,0.0361,0.0348,0.0377,0.0353,0.0402,0.0331,0.036,0.0301,0.0262,0.0235,0.0235,0.0267,0.0299,0.0259,0.0358,0,0,0,0,0.0402,0.0422,0.0432,0.0454,0.045,0.0426,0.0379,0.0339,0.029,0.0263,0.0275,0.0294,0.0267,0.0291,0.0233,0.0233,0.0233,0.0233,0.0233,0.0468,0.0477,0.0526,0.053,0.0538,0.0493,0.045,0.0386,0.035,0.033,0.0331,0.0342,0.0371,0.0327,0.0327,0.0327,0.0327,0.0327,0.0327,0.0548,0.0574,0.0584,0.0639,0.0609,0.062,0.0526,0.0469,0.0389,0.0373,0.0343,0.034,0.0332,0.0331,0.033,0.033,0.0329,0.0329,0.0329,0.0582,0.0595,0.0639,0.0698,0.0728,0.0695,0.0669,0.0578,0.0449,0.0417,0.0398,0.0356,0.0343,0.0388,0.0388,0.0388,0.0388,0.0388,0.0388,0.0587,0.0629,0.0695,0.076,0.081,0.0833,0.0756,0.0675,0.0538,0.0462,0.0428,0.0361,0.0359,0.0346,0.0388,0.0388,0.0388,0.0388,0.0388,0.0613,0.0636,0.0735,0.0802,0.0912,0.0919,0.0879,0.0715,0.0611,0.0499,0.0452,0.0449,0.0429,0.0424,0.0412,0.0476,0.0476,0.0477,0,0.0615,0.0635,0.0765,0.0875,0.0947,0.0969,0.0877,0.0772,0.0587,0.0589,0.0558,0.051,0.0506,0.0489,0.0486,0.0476,0,0,0,0.0619,0.0665,0.0748,0.0873,0.0967,0.09,0.0846,0.078,0.0656,0.0559,0.0495,0.049,0.0474,0.0389,0.0348,0.0346,0.0322,0,0]}]]